Location: Haliburton Scout Reserve
(45.0900°N, 78.3200°W)
Time: 11:09:25
(UTC-05:00)

N. Korean satellite - Pass Details

Date: 07 December 2021
Orbit: 447 x 491 km, 97.3° (Epoch: 23 January)

Event Time Altitude Azimuth Distance (km) Brightness Sun altitude
Rises 06:14:13 0° 0° (N) 2,463 10.0 -14.3°
Reaches altitude 10° 06:16:28 10° 348° (NNW) 1,584 8.9 -13.9°
Maximum altitude 06:19:19 26° 290° (WNW) 932 7.4 -13.4°
Drops below altitude 10° 06:22:09 10° 233° (SW) 1,573 8.8 -12.9°
Sets 06:24:23 0° 220° (SW) 2,442 9.9 -12.6°
